| time (UTC) | temp F | wind direction | speed MPH | gust MPH | rain 1hr in | rain 24hr in | rain mn in | humidity % | barometer mb |
| 20260506155032 | 73 | 322 | 1.0 | 5.0 | 0.00 | 0.00 | 0.00 | 48 | 1004.9 |
| 20260506154544 | 73 | 310 | 2.0 | 5.0 | 0.00 | 0.00 | 0.00 | 49 | 1005.0 |
| 20260506154024 | 74 | 258 | 2.0 | 3.0 | 0.00 | 0.00 | 0.00 | 49 | 1005.0 |
| 20260506153536 | 74 | 311 | 2.0 | 6.0 | 0.00 | 0.00 | 0.00 | 48 | 1005.0 |
| 20260506153049 | 75 | 325 | 2.0 | 7.0 | 0.00 | 0.00 | 0.00 | 48 | 1004.9 |
| 20260506152528 | 75 | 315 | 2.0 | 5.0 | 0.00 | 0.00 | 0.00 | 48 | 1005.0 |
| 20260506152041 | 74 | 314 | 2.0 | 8.0 | 0.00 | 0.00 | 0.00 | 48 | 1004.9 |
| 20260506151520 | 74 | 321 | 2.0 | 5.0 | 0.00 | 0.00 | 0.00 | 48 | 1005.0 |
| 20260506151032 | 75 | 296 | 2.0 | 6.0 | 0.00 | 0.00 | 0.00 | 47 | 1005.1 |
| 20260506150544 | 74 | 328 | 2.0 | 3.0 | 0.00 | 0.00 | 0.00 | 48 | 1005.0 |
| 20260506150025 | 74 | 271 | 2.0 | 6.0 | 0.00 | 0.00 | 0.00 | 47 | 1005.1 |
| 20260506145536 | 74 | 318 | 2.0 | 7.0 | 0.00 | 0.00 | 0.00 | 47 | 1005.1 |
| 20260506145048 | 75 | 299 | 3.0 | 8.0 | 0.00 | 0.00 | 0.00 | 46 | 1005.1 |
| 20260506144528 | 76 | 308 | 3.0 | 6.0 | 0.00 | 0.00 | 0.00 | 45 | 1005.0 |
| 20260506144040 | 76 | 328 | 1.0 | 3.0 | 0.00 | 0.00 | 0.00 | 45 | 1005.0 |
| 20260506143520 | 76 | 293 | 2.0 | 6.0 | 0.00 | 0.00 | 0.00 | 45 | 1005.0 |
| 20260506143032 | 76 | 268 | 2.0 | 5.0 | 0.00 | 0.00 | 0.00 | 45 | 1005.0 |
| 20260506142544 | 77 | 336 | 2.0 | 5.0 | 0.00 | 0.00 | 0.00 | 45 | 1005.1 |
| 20260506142044 | 77 | 306 | 2.0 | 5.0 | 0.00 | 0.00 | 0.00 | 44 | 1005.1 |
| 20260506141520 | 77 | 300 | 2.0 | 6.0 | 0.00 | 0.00 | 0.00 | 45 | 1005.1 |
| 20260506141033 | 77 | 275 | 3.0 | 6.0 | 0.00 | 0.00 | 0.00 | 45 | 1005.1 |
| 20260506140531 | 76 | 307 | 2.0 | 10.0 | 0.00 | 0.00 | 0.00 | 47 | 1005.1 |
| 20260506140026 | 76 | 287 | 3.0 | 7.0 | 0.00 | 0.00 | 0.00 | 47 | 1005.1 |
| 20260506135536 | 77 | 305 | 2.0 | 6.0 | 0.00 | 0.00 | 0.00 | 47 | 1005.1 |
| 20260506135032 | 76 | 321 | 2.0 | 6.0 | 0.00 | 0.00 | 0.00 | 48 | 1005.1 |
| 20260506134544 | 75 | 304 | 3.0 | 7.0 | 0.00 | 0.00 | 0.00 | 49 | 1005.1 |
| 20260506134024 | 75 | 322 | 2.0 | 6.0 | 0.00 | 0.00 | 0.00 | 50 | 1005.1 |
| 20260506133536 | 75 | 269 | 2.0 | 5.0 | 0.00 | 0.00 | 0.00 | 49 | 1005.1 |
| 20260506133048 | 75 | 272 | 2.0 | 6.0 | 0.00 | 0.00 | 0.00 | 50 | 1005.1 |
| 20260506132528 | 75 | 312 | 2.0 | 3.0 | 0.00 | 0.00 | 0.00 | 50 | 1005.1 |
| 20260506132041 | 76 | 331 | 3.0 | 8.0 | 0.00 | 0.00 | 0.00 | 49 | 1005.0 |
| 20260506131520 | 76 | 310 | 4.0 | 7.0 | 0.00 | 0.00 | 0.00 | 49 | 1005.0 |
| 20260506131033 | 75 | 303 | 2.0 | 5.0 | 0.00 | 0.00 | 0.00 | 50 | 1005.0 |
| 20260506130544 | 75 | 286 | 3.0 | 9.0 | 0.00 | 0.00 | 0.00 | 50 | 1005.1 |
| 20260506130025 | 77 | 299 | 3.0 | 7.0 | 0.00 | 0.00 | 0.00 | 48 | 1005.1 |
| 20260506125536 | 76 | 185 | 3.0 | 7.0 | 0.00 | 0.00 | 0.00 | 49 | 1005.1 |
| 20260506125048 | 77 | 292 | 3.0 | 6.0 | 0.00 | 0.00 | 0.00 | 49 | 1005.2 |
| 20260506124528 | 78 | 290 | 3.0 | 6.0 | 0.00 | 0.00 | 0.00 | 48 | 1005.1 |
| 20260506124040 | 77 | 283 | 2.0 | 6.0 | 0.00 | 0.00 | 0.00 | 48 | 1005.1 |
| 20260506123520 | 75 | 289 | 1.0 | 3.0 | 0.00 | 0.00 | 0.00 | 51 | 1005.1 |
| 20260506123048 | 75 | 286 | 2.0 | 8.0 | 0.00 | 0.00 | 0.00 | 52 | 1005.2 |
| 20260506122528 | 75 | 354 | 2.0 | 6.0 | 0.00 | 0.00 | 0.00 | 52 | 1005.2 |
| 20260506122041 | 76 | 248 | 3.0 | 9.0 | 0.00 | 0.00 | 0.00 | 51 | 1005.2 |
| 20260506121537 | 76 | 281 | 3.0 | 7.0 | 0.00 | 0.00 | 0.00 | 50 | 1005.3 |
| 20260506121033 | 74 | 172 | 4.0 | 13.0 | 0.00 | 0.00 | 0.00 | 52 | 1005.3 |
| 20260506120544 | 74 | 183 | 4.0 | 9.0 | 0.00 | 0.00 | 0.00 | 53 | 1005.3 |
| 20260506120025 | 74 | 302 | 2.0 | 3.0 | 0.00 | 0.00 | 0.00 | 53 | 1005.3 |
| 20260506115524 | 76 | 291 | 2.0 | 6.0 | 0.00 | 0.00 | 0.00 | 52 | 1005.2 |
| 20260506115032 | 74 | 208 | 2.0 | 6.0 | 0.00 | 0.00 | 0.00 | 53 | 1005.2 |
| 20260506114528 | 72 | 355 | 3.0 | 9.0 | 0.00 | 0.00 | 0.00 | 56 | 1005.3 |
| 20260506114040 | 73 | 201 | 2.0 | 5.0 | 0.00 | 0.00 | 0.00 | 56 | 1005.3 |
| 20260506113552 | 73 | 331 | 3.0 | 7.0 | 0.00 | 0.00 | 0.00 | 56 | 1005.4 |
| 20260506113032 | 72 | 294 | 3.0 | 6.0 | 0.00 | 0.00 | 0.00 | 57 | 1005.4 |
| 20260506112544 | 73 | 290 | 2.0 | 6.0 | 0.00 | 0.00 | 0.00 | 56 | 1005.3 |
| 20260506112040 | 73 | 301 | 2.0 | 6.0 | 0.00 | 0.00 | 0.00 | 57 | 1005.3 |
| 20260506111520 | 73 | 302 | 3.0 | 7.0 | 0.00 | 0.00 | 0.00 | 58 | 1005.3 |
| 20260506111032 | 73 | 313 | 3.0 | 6.0 | 0.00 | 0.00 | 0.00 | 57 | 1005.3 |
| 20260506110544 | 73 | 309 | 3.0 | 7.0 | 0.00 | 0.00 | 0.00 | 58 | 1005.3 |
| 20260506110024 | 73 | 299 | 2.0 | 5.0 | 0.00 | 0.00 | 0.00 | 57 | 1005.3 |
| 20260506105520 | 73 | 252 | 3.0 | 8.0 | 0.00 | 0.00 | 0.00 | 57 | 1005.4 |
| 20260506105032 | 72 | 268 | 2.0 | 5.0 | 0.00 | 0.00 | 0.00 | 58 | 1005.4 |
| 20260506104544 | 71 | 304 | 3.0 | 6.0 | 0.00 | 0.00 | 0.00 | 58 | 1005.4 |
| 20260506104040 | 72 | 290 | 2.0 | 5.0 | 0.00 | 0.00 | 0.00 | 58 | 1005.5 |
| 20260506103520 | 72 | 306 | 2.0 | 6.0 | 0.00 | 0.00 | 0.00 | 57 | 1005.3 |
| 20260506103032 | 73 | 276 | 2.0 | 5.0 | 0.00 | 0.00 | 0.00 | 56 | 1005.2 |
| 20260506102544 | 75 | 312 | 2.0 | 5.0 | 0.00 | 0.00 | 0.00 | 55 | 1005.2 |
| 20260506102024 | 74 | 247 | 2.0 | 5.0 | 0.00 | 0.00 | 0.00 | 55 | 1005.1 |
| 20260506101536 | 73 | 304 | 2.0 | 5.0 | 0.00 | 0.00 | 0.00 | 56 | 1005.1 |
| 20260506101032 | 73 | 310 | 2.0 | 7.0 | 0.00 | 0.00 | 0.00 | 55 | 1005.2 |
| 20260506100528 | 74 | 269 | 2.0 | 6.0 | 0.00 | 0.00 | 0.00 | 55 | 1005.2 |
| 20260506100040 | 74 | 310 | 2.0 | 7.0 | 0.00 | 0.00 | 0.00 | 54 | 1005.1 |
| 20260506095520 | 72 | 310 | 2.0 | 8.0 | 0.00 | 0.00 | 0.00 | 56 | 1005.1 |
| 20260506095048 | 74 | 311 | 3.0 | 8.0 | 0.00 | 0.00 | 0.00 | 54 | 1005.1 |
| 20260506094549 | 74 | 276 | 2.0 | 7.0 | 0.00 | 0.00 | 0.00 | 53 | 1005.2 |
| 20260506094040 | 74 | 308 | 2.0 | 6.0 | 0.00 | 0.00 | 0.00 | 54 | 1005.2 |
| 20260506093520 | 74 | 161 | 2.0 | 6.0 | 0.00 | 0.00 | 0.00 | 54 | 1005.1 |
| 20260506093048 | 73 | 324 | 3.0 | 6.0 | 0.00 | 0.00 | 0.00 | 55 | 1004.9 |
| 20260506092528 | 71 | 317 | 2.0 | 5.0 | 0.00 | 0.00 | 0.00 | 57 | 1005.0 |
| 20260506092040 | 72 | 292 | 2.0 | 5.0 | 0.00 | 0.00 | 0.00 | 57 | 1005.0 |
| 20260506091520 | 71 | 295 | 3.0 | 7.0 | 0.00 | 0.00 | 0.00 | 56 | 1004.9 |
| 20260506091032 | 72 | 294 | 3.0 | 6.0 | 0.00 | 0.00 | 0.00 | 57 | 1005.0 |
| 20260506090544 | 72 | 282 | 2.0 | 6.0 | 0.00 | 0.00 | 0.00 | 57 | 1005.0 |
| 20260506090024 | 72 | 319 | 2.0 | 8.0 | 0.00 | 0.00 | 0.00 | 57 | 1005.0 |
| 20260506085536 | 71 | 262 | 3.0 | 7.0 | 0.00 | 0.00 | 0.00 | 58 | 1005.0 |
| 20260506085048 | 71 | 264 | 2.0 | 7.0 | 0.00 | 0.00 | 0.00 | 59 | 1004.9 |
| 20260506084529 | 71 | 296 | 2.0 | 7.0 | 0.00 | 0.00 | 0.00 | 59 | 1005.0 |
| 20260506084040 | 71 | 320 | 3.0 | 7.0 | 0.00 | 0.00 | 0.00 | 58 | 1004.9 |
| 20260506083520 | 71 | 310 | 2.0 | 6.0 | 0.00 | 0.00 | 0.00 | 60 | 1005.0 |
| 20260506083032 | 70 | 322 | 2.0 | 6.0 | 0.00 | 0.00 | 0.00 | 60 | 1005.0 |
| 20260506082602 | 70 | 293 | 2.0 | 6.0 | 0.00 | 0.00 | 0.00 | 60 | 1004.9 |
| 20260506082041 | 70 | 227 | 2.0 | 6.0 | 0.00 | 0.00 | 0.00 | 60 | 1005.0 |
| 20260506081520 | 70 | 300 | 2.0 | 6.0 | 0.00 | 0.00 | 0.00 | 61 | 1005.0 |
| 20260506081104 | 68 | 244 | 3.0 | 9.0 | 0.00 | 0.00 | 0.00 | 62 | 1005.0 |
| 20260506080544 | 67 | 305 | 2.0 | 3.0 | 0.00 | 0.00 | 0.00 | 65 | 1005.1 |
| 20260506073049 | 66 | 234 | 3.0 | 7.0 | 0.00 | 0.00 | 0.00 | 67 | 1004.9 |
| 20260506072529 | 65 | 198 | 3.0 | 9.0 | 0.00 | 0.00 | 0.00 | 67 | 1004.9 |
| 20260506072041 | 65 | 174 | 4.0 | 11.0 | 0.00 | 0.00 | 0.00 | 67 | 1004.9 |
| 20260506071537 | 66 | 193 | 4.0 | 11.0 | 0.00 | 0.00 | 0.00 | 66 | 1004.9 |
| 20260506071048 | 65 | 177 | 3.0 | 7.0 | 0.00 | 0.00 | 0.00 | 66 | 1004.9 |
| 20260506070544 | 66 | 230 | 3.0 | 8.0 | 0.00 | 0.00 | 0.00 | 66 | 1005.0 |
| 20260506062024 | 63 | 199 | 1.0 | 5.0 | 0.00 | 0.00 | 0.00 | 69 | 1004.4 |
| 20260506061520 | 63 | 20 | 2.0 | 6.0 | 0.00 | 0.00 | 0.00 | 68 | 1004.5 |
| 20260506061032 | 64 | 192 | 4.0 | 9.0 | 0.00 | 0.00 | 0.00 | 68 | 1004.4 |
| 20260506060529 | 63 | 175 | 3.0 | 7.0 | 0.00 | 0.00 | 0.00 | 68 | 1004.4 |
| 20260506051048 | 63 | 162 | 3.0 | 8.0 | 0.00 | 0.00 | 0.00 | 68 | 1004.5 |
| 20260506050600 | 62 | 243 | 1.0 | 3.0 | 0.00 | 0.00 | 0.00 | 69 | 1004.4 |
| 20260506045032 | 60 | 213 | 2.0 | 6.0 | 0.00 | 0.00 | 0.00 | 71 | 1004.6 |
| 20260506044544 | 60 | 181 | 1.0 | 5.0 | 0.00 | 0.00 | 0.00 | 72 | 1004.6 |
| 20260506044024 | 59 | 216 | 2.0 | 6.0 | 0.00 | 0.00 | 0.00 | 72 | 1004.6 |
| 20260506043536 | 59 | 164 | 1.0 | 3.0 | 0.00 | 0.00 | 0.00 | 73 | 1004.7 |
| 20260506043050 | 58 | 262 | 2.0 | 5.0 | 0.00 | 0.00 | 0.00 | 74 | 1004.7 |
| 20260506042528 | 57 | 190 | 2.0 | 5.0 | 0.00 | 0.00 | 0.00 | 76 | 1004.9 |
| 20260506042041 | 55 | 200 | 2.0 | 6.0 | 0.00 | 0.00 | 0.00 | 78 | 1004.7 |
| 20260506041520 | 54 | 353 | 1.0 | 1.0 | 0.00 | 0.00 | 0.00 | 81 | 1004.6 |
| 20260506041033 | 53 | 348 | 0.0 | 2.0 | 0.00 | 0.00 | 0.00 | 83 | 1004.7 |
| 20260506040544 | 52 | 10 | 1.0 | 2.0 | 0.00 | 0.00 | 0.00 | 85 | 1004.6 |
| 20260506040025 | 50 | 336 | 0.0 | 1.0 | 0.00 | 0.00 | 0.00 | 88 | 1004.6 |
| 20260506035536 | 49 | 349 | 0.0 | 1.0 | 0.00 | 0.00 | 0.00 | 91 | 1004.5 |
| 20260506035048 | 48 | 0.0 | 0.0 | 0.00 | 0.00 | 0.00 | 92 | 1004.6 | |
| 20260506034528 | 48 | 0.0 | 0.0 | 0.00 | 0.00 | 0.00 | 92 | 1004.6 | |
| 20260506034040 | 48 | 0.0 | 0.0 | 0.00 | 0.00 | 0.00 | 92 | 1004.6 | |
| 20260506033520 | 48 | 0.0 | 0.0 | 0.00 | 0.00 | 0.00 | 93 | 1004.6 | |
| 20260506033032 | 48 | 0.0 | 0.0 | 0.00 | 0.00 | 0.00 | 93 | 1004.6 | |
| 20260506032545 | 48 | 0.0 | 0.0 | 0.00 | 0.00 | 0.00 | 93 | 1004.8 | |
| 20260506032024 | 48 | 0.0 | 0.0 | 0.00 | 0.00 | 0.00 | 93 | 1004.7 | |
| 20260506031537 | 48 | 0.0 | 0.0 | 0.00 | 0.00 | 0.00 | 93 | 1004.7 | |
| 20260506031048 | 48 | 0.0 | 0.0 | 0.00 | 0.00 | 0.00 | 93 | 1004.8 | |
| 20260506030529 | 48 | 0.0 | 0.0 | 0.00 | 0.00 | 0.00 | 93 | 1004.7 | |
| 20260506030040 | 48 | 0.0 | 0.0 | 0.00 | 0.00 | 0.00 | 93 | 1004.8 | |
| 20260506025521 | 48 | 0.0 | 0.0 | 0.00 | 0.00 | 0.00 | 93 | 1004.9 | |
| 20260506025032 | 48 | 0.0 | 0.0 | 0.00 | 0.00 | 0.00 | 93 | 1004.8 | |
| 20260506024544 | 48 | 325 | 0.0 | 1.0 | 0.00 | 0.00 | 0.00 | 93 | 1004.9 |
| 20260506024024 | 48 | 0.0 | 0.0 | 0.00 | 0.00 | 0.00 | 93 | 1004.7 | |
| 20260506023536 | 49 | 0.0 | 0.0 | 0.00 | 0.00 | 0.00 | 93 | 1004.8 | |
| 20260506023048 | 49 | 331 | 0.0 | 1.0 | 0.00 | 0.00 | 0.00 | 93 | 1004.8 |
| 20260506022528 | 49 | 0.0 | 0.0 | 0.00 | 0.00 | 0.00 | 93 | 1004.8 | |
| 20260506022024 | 49 | 0.0 | 0.0 | 0.00 | 0.00 | 0.00 | 93 | 1004.8 | |
| 20260506021536 | 49 | 0.0 | 0.0 | 0.00 | 0.00 | 0.00 | 94 | 1004.8 | |
| 20260506021049 | 49 | 0.0 | 0.0 | 0.00 | 0.00 | 0.00 | 94 | 1005.0 | |
| 20260506020544 | 49 | 0.0 | 0.0 | 0.00 | 0.00 | 0.00 | 94 | 1005.0 | |
| 20260506020024 | 49 | 0.0 | 0.0 | 0.00 | 0.00 | 0.00 | 94 | 1004.9 | |
| 20260506015536 | 49 | 0.0 | 0.0 | 0.00 | 0.00 | 0.00 | 94 | 1005.1 | |
| 20260506015048 | 49 | 0.0 | 0.0 | 0.00 | 0.00 | 0.00 | 94 | 1005.0 | |
| 20260506014528 | 50 | 0.0 | 0.0 | 0.00 | 0.00 | 0.00 | 94 | 1005.0 | |
| 20260506014040 | 50 | 0.0 | 0.0 | 0.00 | 0.00 | 0.00 | 94 | 1005.0 | |
| 20260506013520 | 50 | 0.0 | 0.0 | 0.00 | 0.00 | 0.00 | 94 | 1005.0 | |
| 20260506013032 | 50 | 0.0 | 0.0 | 0.00 | 0.00 | 0.00 | 94 | 1005.0 | |
| 20260506012549 | 50 | 0.0 | 0.0 | 0.00 | 0.00 | 0.00 | 94 | 1005.0 | |
| 20260506012024 | 51 | 0.0 | 0.0 | 0.00 | 0.00 | 0.00 | 94 | 1005.0 | |
| 20260506011537 | 51 | 0.0 | 0.0 | 0.00 | 0.00 | 0.00 | 94 | 1005.0 | |
| 20260506011048 | 51 | 0.0 | 0.0 | 0.00 | 0.00 | 0.00 | 94 | 1004.9 | |
| 20260506010529 | 51 | 0.0 | 0.0 | 0.00 | 0.00 | 0.00 | 94 | 1005.1 | |
| 20260506010040 | 51 | 0.0 | 0.0 | 0.00 | 0.00 | 0.00 | 94 | 1005.1 | |
| 20260506005521 | 51 | 0.0 | 0.0 | 0.00 | 0.00 | 0.00 | 94 | 1005.1 | |
| 20260506005032 | 51 | 0.0 | 0.0 | 0.00 | 0.00 | 0.00 | 94 | 1005.1 | |
| 20260506004544 | 52 | 0.0 | 0.0 | 0.00 | 0.00 | 0.00 | 94 | 1005.1 | |
| 20260506004024 | 52 | 0.0 | 0.0 | 0.00 | 0.00 | 0.00 | 94 | 1005.2 | |
| 20260506003536 | 52 | 337 | 0.0 | 1.0 | 0.00 | 0.00 | 0.00 | 93 | 1005.2 |
| 20260506003048 | 52 | 0.0 | 0.0 | 0.00 | 0.00 | 0.00 | 93 | 1005.3 | |
| 20260506002528 | 52 | 0.0 | 0.0 | 0.00 | 0.00 | 0.00 | 93 | 1005.2 | |
| 20260506002041 | 52 | 0.0 | 0.0 | 0.00 | 0.00 | 0.00 | 93 | 1005.2 | |
| 20260506001520 | 53 | 0.0 | 0.0 | 0.00 | 0.00 | 0.00 | 93 | 1005.2 | |
| 20260506001033 | 53 | 0.0 | 0.0 | 0.00 | 0.00 | 0.00 | 92 | 1005.2 | |
| 20260506000544 | 53 | 0.0 | 0.0 | 0.00 | 0.00 | 0.00 | 92 | 1005.2 | |
| 20260506000025 | 53 | 0.0 | 0.0 | 0.00 | 0.00 | 0.00 | 92 | 1005.2 | |
| 20260505235536 | 53 | 0.0 | 0.0 | 0.00 | 0.00 | 0.00 | 92 | 1005.2 | |
| 20260505235048 | 53 | 0.0 | 0.0 | 0.00 | 0.00 | 0.00 | 92 | 1005.3 | |
| 20260505234528 | 54 | 322 | 0.0 | 1.0 | 0.00 | 0.00 | 0.00 | 91 | 1005.3 |
| 20260505234040 | 54 | 0.0 | 0.0 | 0.00 | 0.00 | 0.00 | 91 | 1005.4 | |
| 20260505233520 | 54 | 0.0 | 0.0 | 0.00 | 0.00 | 0.00 | 91 | 1005.2 | |
| 20260505233032 | 54 | 0.0 | 0.0 | 0.00 | 0.00 | 0.00 | 91 | 1005.4 | |
| 20260505232544 | 54 | 327 | 0.0 | 1.0 | 0.00 | 0.00 | 0.00 | 91 | 1005.3 |
| 20260505232024 | 54 | 322 | 0.0 | 1.0 | 0.00 | 0.00 | 0.00 | 91 | 1005.4 |
| 20260505231536 | 54 | 332 | 0.0 | 1.0 | 0.00 | 0.00 | 0.00 | 91 | 1005.6 |
| 20260505230528 | 55 | 28 | 1.0 | 2.0 | 0.00 | 0.00 | 0.00 | 90 | 1005.6 |
| 20260505230040 | 55 | 307 | 1.0 | 2.0 | 0.00 | 0.00 | 0.00 | 90 | 1005.5 |
| 20260505225521 | 56 | 332 | 0.0 | 1.0 | 0.00 | 0.00 | 0.00 | 90 | 1005.5 |
| 20260505225032 | 56 | 324 | 0.0 | 1.0 | 0.00 | 0.00 | 0.00 | 90 | 1005.6 |
| 20260505224544 | 56 | 319 | 0.0 | 1.0 | 0.00 | 0.00 | 0.00 | 89 | 1005.6 |
| 20260505224024 | 57 | 334 | 0.0 | 1.0 | 0.00 | 0.00 | 0.00 | 89 | 1005.6 |
| 20260505223536 | 57 | 0.0 | 0.0 | 0.00 | 0.00 | 0.00 | 89 | 1005.6 | |
| 20260505223016 | 57 | 0.0 | 0.0 | 0.00 | 0.00 | 0.00 | 88 | 1005.7 | |
| 20260505222528 | 57 | 330 | 0.0 | 1.0 | 0.00 | 0.00 | 0.00 | 88 | 1005.7 |
| 20260505222040 | 57 | 318 | 0.0 | 1.0 | 0.00 | 0.00 | 0.00 | 88 | 1005.6 |
| 20260505221520 | 57 | 336 | 0.0 | 1.0 | 0.00 | 0.00 | 0.00 | 88 | 1005.6 |
| 20260505221032 | 58 | 319 | 0.0 | 1.0 | 0.00 | 0.00 | 0.00 | 87 | 1005.7 |
| 20260505220604 | 58 | 316 | 0.0 | 1.0 | 0.00 | 0.00 | 0.00 | 87 | 1005.6 |
| 20260505220024 | 58 | 0.0 | 0.0 | 0.00 | 0.00 | 0.00 | 87 | 1005.5 | |
| 20260505215536 | 58 | 311 | 0.0 | 2.0 | 0.00 | 0.00 | 0.00 | 87 | 1005.6 |
| 20260505215016 | 58 | 333 | 0.0 | 1.0 | 0.00 | 0.00 | 0.00 | 87 | 1005.6 |
| 20260505214528 | 59 | 0.0 | 0.0 | 0.00 | 0.00 | 0.00 | 87 | 1005.7 | |
| 20260505214040 | 58 | 0.0 | 0.0 | 0.00 | 0.00 | 0.00 | 86 | 1005.6 | |
| 20260505213520 | 58 | 0.0 | 0.0 | 0.00 | 0.00 | 0.00 | 86 | 1005.6 | |
| 20260505213032 | 58 | 330 | 0.0 | 1.0 | 0.00 | 0.00 | 0.00 | 86 | 1005.5 |
| 20260505212544 | 58 | 311 | 1.0 | 1.0 | 0.00 | 0.00 | 0.00 | 85 | 1005.6 |
| 20260505212024 | 59 | 296 | 1.0 | 2.0 | 0.00 | 0.00 | 0.00 | 84 | 1005.7 |
| 20260505211532 | 59 | 348 | 0.0 | 2.0 | 0.00 | 0.00 | 0.00 | 84 | 1005.6 |
| 20260505211034 | 59 | 326 | 1.0 | 1.0 | 0.00 | 0.00 | 0.00 | 85 | 1005.6 |
| 20260505210544 | 59 | 315 | 1.0 | 1.0 | 0.00 | 0.00 | 0.00 | 84 | 1005.6 |
| 20260505210024 | 60 | 319 | 0.0 | 1.0 | 0.00 | 0.00 | 0.00 | 82 | 1005.6 |
| 20260505205536 | 60 | 0.0 | 0.0 | 0.00 | 0.00 | 0.00 | 82 | 1005.6 | |
| 20260505205016 | 60 | 327 | 0.0 | 1.0 | 0.00 | 0.00 | 0.00 | 82 | 1005.7 |
| 20260505204528 | 61 | 0.0 | 0.0 | 0.00 | 0.00 | 0.00 | 81 | 1005.6 | |
| 20260505204040 | 61 | 0.0 | 0.0 | 0.00 | 0.00 | 0.00 | 80 | 1005.6 | |
| 20260505203520 | 62 | 0.0 | 0.0 | 0.00 | 0.00 | 0.00 | 78 | 1005.6 | |
| 20260505203032 | 62 | 322 | 1.0 | 1.0 | 0.00 | 0.00 | 0.00 | 79 | 1005.7 |
| 20260505202545 | 62 | 323 | 1.0 | 2.0 | 0.00 | 0.00 | 0.00 | 77 | 1005.6 |
| 20260505202024 | 62 | 311 | 0.0 | 1.0 | 0.00 | 0.00 | 0.00 | 76 | 1005.6 |
| 20260505201537 | 63 | 318 | 0.0 | 1.0 | 0.00 | 0.00 | 0.00 | 76 | 1005.6 |
| 20260505201016 | 63 | 315 | 0.0 | 1.0 | 0.00 | 0.00 | 0.00 | 75 | 1005.5 |
| 20260505200529 | 63 | 314 | 0.0 | 1.0 | 0.00 | 0.00 | 0.00 | 72 | 1005.5 |
| 20260505200040 | 63 | 320 | 0.0 | 2.0 | 0.00 | 0.00 | 0.00 | 71 | 1005.5 |
| 20260505195521 | 63 | 323 | 1.0 | 2.0 | 0.00 | 0.00 | 0.00 | 69 | 1005.5 |
| 20260505195032 | 62 | 318 | 1.0 | 1.0 | 0.00 | 0.00 | 0.00 | 65 | 1005.4 |
| 20260505194544 | 63 | 315 | 0.0 | 1.0 | 0.00 | 0.00 | 0.00 | 62 | 1005.3 |
| 20260505194024 | 64 | 317 | 1.0 | 5.0 | 0.00 | 0.00 | 0.00 | 62 | 1005.5 |
| 20260505193536 | 63 | 316 | 1.0 | 3.0 | 0.00 | 0.00 | 0.00 | 60 | 1005.4 |
| 20260505193016 | 62 | 334 | 1.0 | 3.0 | 0.00 | 0.00 | 0.00 | 59 | 1005.3 |
| 20260505192529 | 62 | 320 | 1.0 | 1.0 | 0.00 | 0.00 | 0.00 | 60 | 1005.4 |
| 20260505192040 | 62 | 322 | 2.0 | 2.0 | 0.00 | 0.00 | 0.00 | 58 | 1005.2 |
| 20260505191520 | 62 | 327 | 1.0 | 2.0 | 0.00 | 0.00 | 0.00 | 57 | 1005.2 |
| 20260505191032 | 63 | 0.0 | 0.0 | 0.00 | 0.00 | 0.00 | 56 | 1005.1 | |
| 20260505190544 | 63 | 326 | 0.0 | 1.0 | 0.00 | 0.00 | 0.00 | 56 | 1005.1 |
| 20260505190040 | 64 | 325 | 1.0 | 1.0 | 0.00 | 0.00 | 0.00 | 55 | 1005.0 |
| 20260505185520 | 64 | 327 | 1.0 | 1.0 | 0.00 | 0.00 | 0.00 | 55 | 1005.0 |
| 20260505185032 | 64 | 325 | 1.0 | 2.0 | 0.00 | 0.00 | 0.00 | 54 | 1005.1 |
| 20260505184544 | 64 | 327 | 0.0 | 1.0 | 0.00 | 0.00 | 0.00 | 55 | 1005.1 |
| 20260505184024 | 64 | 0.0 | 0.0 | 0.00 | 0.00 | 0.00 | 56 | 1005.0 | |
| 20260505183536 | 64 | 0.0 | 0.0 | 0.00 | 0.00 | 0.00 | 56 | 1005.0 | |
| 20260505183016 | 64 | 0.0 | 0.0 | 0.00 | 0.00 | 0.00 | 56 | 1004.9 | |
| 20260505182528 | 65 | 0.0 | 0.0 | 0.00 | 0.00 | 0.00 | 56 | 1005.0 | |
| 20260505182040 | 65 | 316 | 0.0 | 1.0 | 0.00 | 0.00 | 0.00 | 55 | 1004.9 |
| 20260505181520 | 66 | 0.0 | 0.0 | 0.00 | 0.00 | 0.00 | 54 | 1004.7 | |
| 20260505181032 | 67 | 0.0 | 0.0 | 0.00 | 0.00 | 0.00 | 53 | 1004.8 | |
| 20260505180544 | 67 | 0.0 | 0.0 | 0.00 | 0.00 | 0.00 | 51 | 1004.7 | |
| 20260505180040 | 68 | 0.0 | 0.0 | 0.00 | 0.00 | 0.00 | 50 | 1004.7 | |
| 20260505175520 | 69 | 0.0 | 0.0 | 0.00 | 0.00 | 0.00 | 49 | 1004.7 | |
| 20260505175032 | 69 | 0.0 | 0.0 | 0.00 | 0.00 | 0.00 | 47 | 1004.6 | |
| 20260505174544 | 70 | 0.0 | 0.0 | 0.00 | 0.00 | 0.00 | 46 | 1004.6 | |
| 20260505174024 | 71 | 0.0 | 0.0 | 0.00 | 0.00 | 0.00 | 45 | 1004.5 | |
| 20260505173536 | 72 | 0.0 | 0.0 | 0.00 | 0.00 | 0.00 | 44 | 1004.6 | |
| 20260505173016 | 72 | 0.0 | 0.0 | 0.00 | 0.00 | 0.00 | 42 | 1004.7 | |
| 20260505172528 | 73 | 0.0 | 0.0 | 0.00 | 0.00 | 0.00 | 40 | 1004.6 | |
| 20260505172024 | 74 | 0.0 | 0.0 | 0.00 | 0.00 | 0.00 | 39 | 1004.7 | |
| 20260505171536 | 75 | 0.0 | 0.0 | 0.00 | 0.00 | 0.00 | 38 | 1004.7 | |
| 20260505171020 | 76 | 342 | 0.0 | 1.0 | 0.00 | 0.00 | 0.00 | 36 | 1004.7 |
| 20260505170528 | 76 | 334 | 0.0 | 1.0 | 0.00 | 0.00 | 0.00 | 35 | 1004.7 |
| 20260505170040 | 77 | 309 | 0.0 | 1.0 | 0.00 | 0.00 | 0.00 | 34 | 1004.7 |
| 20260505165520 | 77 | 318 | 1.0 | 2.0 | 0.00 | 0.00 | 0.00 | 34 | 1004.7 |
| 20260505165033 | 77 | 299 | 1.0 | 3.0 | 0.00 | 0.00 | 0.00 | 33 | 1004.8 |
| 20260505164534 | 77 | 314 | 1.0 | 5.0 | 0.00 | 0.00 | 0.00 | 33 | 1004.7 |
| 20260505164040 | 77 | 328 | 2.0 | 3.0 | 0.00 | 0.00 | 0.00 | 33 | 1004.8 |
| 20260505163520 | 77 | 309 | 1.0 | 5.0 | 0.00 | 0.00 | 0.00 | 32 | 1004.9 |
| 20260505163032 | 78 | 320 | 2.0 | 3.0 | 0.00 | 0.00 | 0.00 | 32 | 1004.8 |
| 20260505162546 | 78 | 318 | 1.0 | 3.0 | 0.00 | 0.00 | 0.00 | 32 | 1004.8 |
| 20260505162041 | 78 | 271 | 1.0 | 3.0 | 0.00 | 0.00 | 0.00 | 31 | 1004.8 |
| 20260505161553 | 78 | 303 | 1.0 | 3.0 | 0.00 | 0.00 | 0.00 | 31 | 1004.9 |
| 20260505161034 | 79 | 304 | 1.0 | 5.0 | 0.00 | 0.00 | 0.00 | 31 | 1004.9 |
| 20260505160532 | 79 | 333 | 2.0 | 3.0 | 0.00 | 0.00 | 0.00 | 30 | 1004.8 |